Flag for U.S.A. Weather past 2 weeks in Santa Rosa, California, U.S.A.

Now
53 °F

Clear.


Feels Like: 53 °F
Forecast: 56 / 84 °F
Wind: No wind

Location: Santa Rosa Sonoma County Airport

Current Time: Aug 30, 2014 at 7:13:00 AM

Latest Report: Aug 30, 2014 at 5:53 AM


Visibility: 9 mi

Pressure: 29.86 "Hg

Humidity: 93%

Dew point: 51 °F

Location of Santa RosaLocation

Historic Weather in Santa Rosa — Graph

°F

Santa Rosa temperature yesterday

Maximum temperature yesterday: 82 °F (at 2:53 PM)
Minimum temperature yesterday: 57 °F (at 5:53 AM)
Average temperature yesterday: 65 °F

Past Weeks' High & Low Weather Summary

 TemperatureHumidityPressure
High88 °F (Aug 28, 2:53 PM)100% (Aug 17, 5:53 AM)30.07 "Hg (Aug 17, 5:53 AM)
Low53 °F (Aug 30, 5:53 AM)29% (Aug 16, 2:53 PM)29.75 "Hg (Aug 18, 6:53 PM)
Average64 °F76%29.90 "Hg
* Reported Aug 15 5:53 AM — Aug 30 5:53 AM, Santa Rosa, Weather by CustomWeather, © 2014

Note: Actual official high and low records may vary slightly from our data, if they occured in-between our weather recording intervals... More about our weather records

Advertising

Santa Rosa weather history for previous 24 hours

 ConditionsComfort  
Time TempWeatherWind HumidityBarometerVisibility
5:53 AM
Aug 30
53 °FClear.No wind93%29.86 "Hg9 mi
4:53 AM55 °FClear.No wind90%29.85 "Hg10 mi
3:53 AM56 °FClear.No wind90%29.85 "Hg10 mi
2:53 AM57 °FClear.No wind90%29.85 "Hg10 mi
1:53 AM60 °FClear.3 mph83%29.85 "Hg10 mi
12:53 AM61 °FClear.No wind81%29.86 "Hg10 mi
11:53 PM
Aug 29
62 °FClear.No wind80%29.86 "Hg10 mi
10:53 PM62 °FClear.3 mph80%29.87 "Hg10 mi
9:53 PM64 °FClear.3 mph75%29.86 "Hg10 mi
8:53 PM65 °FClear.3 mph73%29.85 "Hg10 mi
7:53 PM68 °FSunny.3 mph68%29.84 "Hg10 mi
6:53 PM72 °FPartly sunny.7 mph59%29.83 "Hg10 mi
5:53 PM73 °FPartly sunny.9 mph57%29.84 "Hg10 mi
4:53 PM79 °FSunny.12 mph48%29.83 "Hg10 mi
3:53 PM79 °FPartly sunny.12 mph48%29.83 "Hg10 mi
2:53 PM82 °FSunny.9 mph46%29.85 "Hg10 mi
1:53 PM76 °FPartly sunny.7 mph52%29.87 "Hg10 mi
11:53 AM67 °FPartly sunny.8 mph68%29.90 "Hg10 mi
10:53 AM64 °FBroken clouds.3 mph75%29.92 "Hg10 mi
9:53 AM61 °FLow clouds.3 mph83%29.91 "Hg10 mi
8:53 AM59 °FLow clouds.3 mph90%29.92 "Hg7 mi
7:53 AM58 °FFog.No wind93%29.92 "Hg4 mi
Weather by CustomWeather, © 2014

See weather overviewHow to use our weather pages